Cheatham Observed Data For Previous 48 Hours

Caption
Day and Hour Reservoir Elevation (behind dam)* Tailwater Elevation (below dam)* Average Hourly Discharge*
3/22/2019 1 AM CDT 384.80 371.81 60,000
3/22/2019 2 AM CDT 384.84 371.78 60,000
3/22/2019 3 AM CDT 384.88 371.78 60,000
3/22/2019 4 AM CDT 384.90 371.78 60,000
3/22/2019 5 AM CDT 384.92 371.78 60,000
3/22/2019 6 AM CDT 384.94 371.76 60,000
3/22/2019 7 AM CDT 384.91 371.79 60,000
3/22/2019 8 AM CDT 384.91 371.73 60,000
3/22/2019 9 AM CDT 384.89 371.77 60,000
3/22/2019 10 AM CDT 384.88 371.80 60,000
3/22/2019 11 AM CDT 384.88 371.79 60,000
3/22/2019 12 PM CDT 384.88 371.75 60,000
3/22/2019 1 PM CDT 384.89 371.75 60,000
3/22/2019 2 PM CDT 384.92 371.77 60,000
3/22/2019 3 PM CDT 384.94 371.72 60,000
3/22/2019 4 PM CDT 384.95 371.77 60,000
3/22/2019 5 PM CDT 384.97 371.80 60,000
3/22/2019 6 PM CDT 384.99 371.83 60,000
3/22/2019 7 PM CDT 385.01 371.83 60,000
3/22/2019 8 PM CDT 385.01 371.83 60,000
3/22/2019 9 PM CDT 385.01 371.83 60,000
3/22/2019 10 PM CDT 385.00 371.80 60,000
3/22/2019 11 PM CDT 385.00 371.80 60,000
3/23/2019 12 AM CDT 385.00 371.80 60,000
3/23/2019 1 AM CDT 385.01 371.80 60,000
3/23/2019 2 AM CDT 385.02 371.80 60,000
3/23/2019 3 AM CDT 385.03 371.80 60,000
3/23/2019 4 AM CDT 385.04 371.80 60,000
3/23/2019 5 AM CDT 385.05 371.80 60,000
3/23/2019 6 AM CDT 385.06 371.80 60,000
3/23/2019 7 AM CDT 385.05 371.79 60,000
3/23/2019 8 AM CDT 385.02 371.75 60,000
3/23/2019 9 AM CDT 384.97 371.73 60,000
3/23/2019 10 AM CDT 384.95 371.78 60,000
3/23/2019 11 AM CDT 384.91 371.73 60,000
3/23/2019 12 PM CDT 384.89 371.72 60,000
3/23/2019 1 PM CDT 384.88 371.68 60,000
3/23/2019 2 PM CDT 384.85 371.67 60,000
3/23/2019 3 PM CDT 384.85 371.75 60,000
3/23/2019 4 PM CDT 384.79 371.86 60,000
3/23/2019 5 PM CDT 384.76 371.72 60,000
3/23/2019 6 PM CDT 384.68 371.66 60,000
3/23/2019 7 PM CDT 384.62 371.63 60,000
3/23/2019 8 PM CDT 384.54 371.56 60,000
3/23/2019 9 PM CDT 384.46 371.59 60,000
3/23/2019 10 PM CDT 384.46 371.59 60,000
3/23/2019 11 PM CDT 384.46 371.59 60,000
3/24/2019 12 AM CDT 384.46 371.59 60,000

Elevations are in feet above sea level. Discharges are in cubic feet per second and are reported at the end of the hour.